Theta_e
325 325 325 322 320 320 320 321 321 321 321 321 320 320 320 320 320 319 320 319 319 318 318 318 319 320 313 306 309 323 348 344 323 310 306 313 319 319 323 325 329 323 326 326 329 328 329
323 324 324 324 320 319 320 320 320 321 320 320 320 320 320 320 320 319 319 319 318 318 318 318 319 320 308 299 319 330 327 321 313 305 304 308 319 321 325 327 325 329 327 326 327 329 333
321 321 323 323 321 320 320 321 320 320 320 320 320 320 320 320 319 319 318 317 317 317 318 318 319 318 308 304 323 330 323 315 306 305 306 310 314 315 317 328 334 329 323 326 328 330 330
322 322 322 322 322 320 321 320 320 320 319 320 320 320 320 319 319 318 317 316 316 318 318 319 320 312 302 317 317 316 316 306 307 305 308 314 316 313 310 331 329 321 325 317 325 328 330
322 321 321 321 320 319 318 320 320 320 319 319 319 319 319 318 318 317 315 315 316 319 323 320 310 307 306 325 311 314 314 308 303 304 308 317 313 309 307 315 318 318 311 312 316 328 325
321 321 320 320 319 318 318 318 319 320 319 319 318 318 318 318 317 315 314 315 315 317 320 319 318 306 311 313 309 311 312 313 305 304 306 306 305 300 300 303 304 310 310 312 312 322 324
319 319 318 319 318 318 318 318 317 319 319 319 318 317 317 317 316 313 308 307 307 306 310 308 309 310 313 314 315 310 312 313 307 306 300 304 298 296 299 305 317 317 315 314 317 323 321
319 318 318 319 319 319 318 318 317 318 318 318 318 317 317 315 313 312 307 302 308 310 301 312 315 315 317 312 308 311 313 307 306 300 303 299 296 302 308 320 319 318 313 311 317 323 321
318 318 318 318 319 318 318 318 317 317 317 317 317 316 314 313 312 307 305 308 312 310 299 307 313 312 310 306 306 307 308 305 305 301 300 296 300 306 315 318 314 316 313 312 313 316 319
317 318 318 319 319 318 317 317 317 317 317 317 317 315 312 311 308 308 308 312 312 310 295 302 299 306 307 307 303 312 310 307 303 301 301 297 304 304 303 316 316 310 319 317 314 310 302
319 318 319 319 319 318 317 317 316 317 316 316 316 315 311 311 303 304 311 306 308 308 288 308 302 312 308 302 304 307 312 307 301 301 297 296 299 299 299 316 316 310 320 316 314 311 308
318 319 319 319 318 318 317 316 316 316 315 315 315 313 311 306 303 307 310 309 306 295 291 304 304 302 301 303 305 308 308 307 307 302 301 301 304 301 302 319 317 319 317 316 313 310 300
318 318 318 318 318 317 316 316 316 315 314 314 312 311 308 312 309 312 310 307 296 290 304 302 300 299 299 300 304 303 303 299 296 292 292 299 300 307 321 313 319 317 307 300 298 299 298
318 317 317 317 317 317 317 316 316 314 314 312 310 308 307 311 308 310 307 302 292 302 300 304 299 301 298 301 302 303 299 297 299 296 293 291 291 305 312 315 311 311 305 301 295 297 301
318 317 317 317 317 317 317 316 315 314 313 311 308 304 306 310 312 309 303 294 293 295 301 302 300 297 298 301 301 301 297 296 301 299 293 292 295 306 310 313 317 309 304 310 300 303 299
318 317 317 317 317 317 317 316 315 314 312 310 307 307 307 315 315 307 300 296 296 301 303 302 295 299 294 298 298 298 298 304 304 305 300 298 293 301 307 307 315 309 309 297 297 294 293
318 317 317 317 317 317 317 316 315 313 312 310 309 303 311 315 312 304 296 298 301 303 305 299 297 297 300 298 298 296 299 306 306 304 304 297 296 298 301 296 297 298 296 295 297 300 294
318 317 317 317 317 317 317 316 314 312 310 309 307 300 315 312 301 299 296 299 303 302 303 302 302 301 299 300 298 299 300 304 310 302 299 299 295 292 296 303 306 299 295 295 292 292 295
317 317 317 317 317 317 317 316 314 311 310 304 301 303 311 309 295 294 299 301 304 300 300 301 300 300 300 299 295 300 303 309 310 305 298 299 297 290 294 298 303 300 301 298 294 291 290
317 317 317 317 317 318 317 315 314 312 311 304 304 299 306 304 299 300 296 299 299 305 303 302 300 301 297 298 298 299 301 308 308 306 320 307 294 295 289 294 299 298 302 301 293 288 289
317 316 315 316 317 318 317 316 314 313 311 306 306 300 305 300 299 298 297 299 299 299 301 300 298 298 293 289 296 299 302 303 306 312 304 299 291 297 302 301 304 303 301 303 297 298 293
317 316 315 315 315 317 317 316 315 313 310 309 302 307 309 305 299 298 297 294 298 298 298 296 296 298 296 294 297 295 296 294 296 303 302 301 295 295 294 302 302 302 305 310 310 309 311
317 316 315 316 315 315 317 317 316 313 309 305 311 314 310 304 304 301 296 297 301 301 303 303 301 296 296 300 301 300 298 297 299 299 298 297 296 294 290 300 298 296 305 309 310 314 312
317 316 315 315 315 315 315 316 317 315 311 305 307 310 307 302 307 305 307 304 302 301 298 300 301 296 301 302 300 298 298 304 305 302 300 297 294 293 291 293 288 298 309 313 311 313 314
318 316 315 315 314 315 315 315 317 316 314 304 306 308 309 303 308 308 307 303 302 299 299 301 303 303 303 299 294 292 295 297 301 303 301 300 296 292 289 289 296 303 304 304 306 308 316
318 316 315 315 314 314 315 315 315 317 315 305 306 309 310 304 304 311 308 305 297 297 300 303 305 302 302 295 294 289 290 294 294 299 299 300 298 295 293 290 288 298 307 312 309 299 315
317 316 315 315 314 314 314 315 315 317 315 308 305 307 311 306 309 310 307 302 302 298 298 301 304 302 301 292 290 291 292 299 292 293 292 292 294 292 294 293 298 307 308 311 295 298 314
316 316 315 314 314 314 314 316 315 317 317 310 306 309 310 309 311 314 314 304 304 302 297 300 300 300 299 294 292 294 293 295 294 296 295 291 289 289 295 292 290 309 309 303 305 308 316
316 315 314 314 314 313 314 316 317 316 317 313 303 313 312 312 312 316 315 314 309 307 301 299 299 301 300 297 296 296 296 293 291 289 299 292 295 293 296 296 303 307 307 311 311 314 312
Wind_Speed
13 13 12 14 14 13 13 13 13 12 11 11 11 11 12 12 13 13 12 12 11 11 10 10 10 10 3 1 9 3 7 14 7 6 6 4 3 5 4 3 8 8 15 13 9 10 9
15 15 14 13 14 15 14 13 13 12 12 12 11 11 11 12 13 13 13 12 11 11 10 9 8 10 1 2 4 10 9 6 5 6 6 7 7 0 6 4 3 9 12 13 9 10 8
15 15 13 12 14 14 13 13 14 14 13 13 12 11 12 12 13 13 13 13 12 11 9 8 6 3 2 13 4 5 8 8 6 6 6 8 3 2 10 3 7 13 7 5 4 2 6
13 13 13 13 12 14 13 14 14 14 13 13 13 13 13 13 14 14 14 13 13 11 8 6 4 2 8 8 4 7 6 2 5 6 5 2 5 5 6 6 4 6 5 5 4 4 4
12 14 14 14 15 14 15 14 15 14 14 14 14 14 14 14 13 14 17 16 13 9 6 4 1 1 11 12 3 6 10 6 5 5 6 10 0 7 1 5 4 5 4 4 2 7 5
15 14 14 15 16 16 16 16 16 16 15 15 14 14 15 14 13 14 20 17 2 4 3 6 5 4 5 4 4 5 5 4 6 2 3 3 2 1 4 5 3 6 6 3 5 3 5
16 17 17 17 17 17 17 17 17 16 15 15 15 15 15 15 14 11 11 4 4 2 2 9 6 5 8 4 5 4 6 7 4 3 4 3 4 5 4 3 1 9 7 6 4 1 4
17 17 17 16 14 16 17 16 15 15 15 15 15 16 15 16 16 15 2 1 8 3 8 11 11 8 10 7 1 4 4 4 7 6 3 5 7 9 5 9 14 9 13 3 3 4 2
16 17 17 17 14 14 14 15 15 15 15 16 16 17 19 18 19 2 4 8 6 9 3 9 5 5 7 4 3 6 7 5 2 2 4 7 8 9 10 13 12 11 8 6 3 5 5
16 15 15 14 15 14 14 15 15 15 16 16 15 18 19 22 3 4 6 7 7 6 5 8 2 5 4 4 3 8 8 5 2 11 7 7 14 10 12 11 14 6 9 13 7 2 3
16 16 16 16 16 16 15 15 15 15 16 17 16 14 15 8 4 2 8 7 7 5 5 3 3 3 5 6 3 3 6 4 6 6 1 11 5 6 7 17 12 7 12 12 6 4 2
15 15 16 16 17 17 17 16 16 16 17 17 16 13 12 2 2 10 10 9 6 7 2 5 1 2 1 2 4 7 5 3 3 5 6 11 6 5 7 18 9 19 14 11 5 3 2
16 16 16 16 17 18 18 18 18 18 18 19 14 10 4 3 5 7 7 5 7 5 4 4 5 2 2 3 3 5 5 3 3 5 5 8 6 4 17 19 9 14 7 4 1 1 5
16 17 17 17 17 18 19 20 21 21 21 22 17 10 9 6 2 6 6 7 5 5 4 7 3 5 2 2 4 3 4 1 4 4 2 2 8 12 4 13 17 15 7 8 4 3 2
16 17 17 17 17 18 19 20 23 25 23 24 17 1 2 7 6 4 6 5 3 2 5 7 6 8 6 7 2 3 2 1 4 6 6 1 6 3 9 8 16 6 6 8 6 2 3
16 17 18 18 18 18 19 20 23 27 28 20 2 2 5 6 9 6 6 4 3 2 4 6 4 4 5 7 7 4 2 2 4 3 4 3 2 2 7 9 10 13 8 4 2 6 4
17 17 17 18 18 18 19 20 21 26 30 11 3 5 7 8 6 6 2 6 1 2 1 2 3 1 1 3 1 1 5 4 4 6 5 1 4 9 3 1 10 2 1 3 5 5 5
16 16 17 17 18 18 18 19 19 21 29 8 4 4 5 6 4 1 2 6 3 5 6 6 7 3 2 6 5 2 2 1 6 3 3 3 5 2 7 8 4 3 2 5 6 6 2
15 16 17 17 18 18 17 18 18 16 14 4 2 4 6 7 3 2 7 3 3 3 4 5 5 4 6 5 3 4 5 7 3 3 2 5 4 5 11 8 10 7 6 4 2 3 4
15 17 17 18 18 17 18 17 17 15 10 1 2 4 6 5 1 2 3 2 1 2 3 2 3 7 6 5 4 2 7 5 5 2 2 6 3 7 5 7 2 4 9 5 4 4 3
15 18 19 18 17 18 17 18 19 20 21 4 2 5 4 5 7 1 1 2 7 2 5 8 6 5 2 7 7 7 4 7 7 5 5 5 2 2 10 9 3 2 5 13 5 5 6
12 15 18 18 19 18 17 17 18 22 20 2 1 2 5 4 4 8 2 2 6 3 3 3 5 4 6 5 2 2 4 3 2 9 2 5 1 2 1 7 7 1 14 13 9 6 6
11 13 17 16 17 18 17 16 15 17 13 3 4 4 4 5 6 5 4 5 3 4 4 4 4 4 5 3 2 4 4 5 2 3 4 4 2 4 4 5 4 8 6 13 12 11 3
10 11 15 16 17 17 17 15 13 11 8 1 4 2 3 5 3 2 6 3 8 5 5 4 3 4 5 3 3 6 7 9 11 10 4 2 3 2 3 5 3 0 8 17 18 13 7
10 10 14 15 16 16 17 16 14 10 7 1 4 1 1 3 2 6 17 4 4 2 3 4 2 6 2 6 4 6 7 7 7 6 9 4 4 4 3 1 2 3 7 5 3 7 7
11 9 11 14 14 16 16 16 14 10 9 1 4 4 1 2 5 3 6 4 3 1 7 2 2 3 5 4 4 3 1 2 4 8 4 5 6 7 4 2 5 5 9 9 2 3 5
11 9 10 12 15 14 15 15 14 12 9 1 5 2 0 2 4 4 3 3 3 3 2 3 5 4 5 3 2 3 2 2 1 1 1 5 4 4 5 1 5 2 12 9 4 6 1
11 9 9 12 13 14 13 13 13 12 9 4 6 5 1 3 6 2 6 4 4 4 3 5 6 6 4 5 3 1 3 4 1 2 5 5 4 2 2 5 6 2 5 5 4 3 4
10 8 9 10 11 13 13 12 10 9 8 5 4 3 1 4 7 3 6 9 3 7 6 2 7 3 4 5 1 3 2 2 4 3 1 2 7 6 6 6 3 3 2 2 4 8 5
Wind_Direction
20 19 15 17 13 8 6 0 357 352 348 344 341 339 335 334 333 331 325 322 320 320 319 320 321 326 358 342 250 211 95 148 135 147 183 186 208 219 224 222 112 113 179 206 265 274 274
21 14 13 7 10 7 360 353 351 351 346 340 336 335 334 333 333 331 328 325 318 313 312 313 316 326 223 305 252 140 133 130 171 161 174 184 218 317 253 177 207 139 175 184 196 259 251
21 15 6 5 7 5 355 350 351 350 342 338 335 335 331 333 336 329 325 317 309 305 299 297 303 295 295 235 355 107 149 182 176 177 177 211 242 292 343 101 62 126 143 144 230 348 301
14 8 4 6 4 1 356 352 354 347 338 336 338 334 331 332 331 327 318 310 302 296 288 271 279 302 249 258 175 240 187 215 181 217 233 223 194 269 229 132 58 49 90 165 223 283 271
16 11 5 5 4 1 357 352 350 344 339 337 336 330 331 329 332 325 313 305 292 280 253 218 197 160 273 302 213 197 160 182 190 232 257 263 17 209 186 123 87 22 339 314 35 22 351
13 13 5 6 1 359 355 351 347 340 336 335 332 329 328 326 332 327 317 303 234 304 197 191 254 315 263 231 210 206 192 146 186 157 336 222 179 135 42 80 193 156 195 196 150 36 17
12 9 6 3 359 356 352 350 346 334 332 331 329 326 325 326 333 338 351 9 20 21 243 207 206 235 275 284 107 206 193 149 216 94 170 244 84 221 228 182 160 123 128 104 15 83 143
9 7 5 358 354 355 350 348 339 332 330 329 327 325 324 327 325 323 312 209 212 153 312 226 237 252 272 270 143 282 110 139 142 192 184 15 222 219 162 136 110 71 85 6 77 150 143
6 9 4 3 356 352 344 339 336 333 330 329 325 332 329 323 317 303 198 235 286 51 348 296 199 196 234 115 226 244 142 140 148 214 200 178 231 185 153 141 124 123 130 206 174 116 67
6 5 358 356 349 344 342 339 337 334 328 324 324 335 332 324 313 340 255 254 278 135 53 283 269 262 150 151 296 215 198 135 210 205 218 221 250 206 186 175 136 161 158 144 159 152 118
356 358 359 350 345 344 343 339 337 333 325 320 317 321 333 342 295 282 249 351 309 67 33 302 254 203 125 146 240 270 171 108 241 264 106 254 264 218 178 175 141 180 160 144 150 68 127
356 355 350 349 346 345 342 338 336 328 320 314 314 319 328 133 235 244 322 315 45 48 356 313 259 227 60 244 257 179 172 135 181 252 247 242 239 192 211 143 124 122 117 69 37 28 298
357 354 349 348 346 344 342 340 335 329 320 311 311 310 286 292 235 12 332 31 41 92 331 276 231 266 247 277 61 150 192 133 172 16 7 330 287 38 106 80 59 118 95 81 334 249 236
353 353 350 346 346 345 343 341 335 331 326 316 311 289 215 228 274 17 15 45 51 252 250 270 340 26 357 107 273 179 117 184 270 129 308 244 329 146 205 154 165 182 157 135 196 182 245
350 351 349 347 347 345 345 345 336 333 334 329 315 87 240 253 171 126 62 47 235 331 304 342 33 42 344 351 66 17 186 104 282 162 181 282 277 342 179 141 141 230 223 168 121 314 122
350 350 348 348 346 346 346 349 341 335 335 339 19 11 260 231 131 72 72 253 262 47 350 37 92 46 355 328 18 38 10 31 338 91 215 313 284 259 298 116 230 154 165 88 15 159 225
346 346 346 346 346 348 347 349 346 340 335 338 25 19 259 117 89 60 173 243 236 325 38 8 98 281 41 274 2 320 9 307 34 338 40 77 94 298 3 86 175 284 15 75 124 157 165
341 342 344 345 345 347 347 348 348 348 340 39 6 356 262 72 59 208 231 207 66 21 20 29 57 92 344 12 352 62 9 268 348 15 10 305 127 306 259 288 290 147 152 138 124 272 181
337 340 341 342 343 345 348 348 347 348 21 330 4 259 303 108 223 254 275 250 128 44 35 36 23 41 29 31 42 15 332 299 351 72 71 326 21 5 347 351 12 43 356 3 154 82 220
336 340 340 340 342 343 347 347 344 340 346 133 33 346 319 29 152 230 265 337 153 101 94 100 9 40 51 43 7 341 353 319 337 91 138 82 23 146 184 234 211 333 334 346 86 60 301
335 341 341 341 340 343 346 348 343 341 342 138 122 251 205 294 315 129 350 36 50 81 48 23 39 68 61 27 0 7 337 340 348 2 42 84 102 113 301 267 261 178 7 11 35 245 160
327 334 338 339 340 341 345 348 346 347 349 16 89 41 336 268 306 355 3 44 106 45 88 352 98 44 60 77 298 347 3 38 306 334 14 2 183 109 259 305 313 334 52 56 17 17 33
318 323 333 334 337 340 344 347 350 358 356 12 312 332 104 293 335 25 266 160 131 108 350 48 132 80 38 319 206 250 246 75 29 42 21 48 59 44 288 301 71 47 64 83 71 31 22
304 314 327 330 330 335 340 345 351 4 51 249 265 325 37 285 342 323 298 126 126 139 157 295 94 110 226 317 353 11 68 80 64 30 44 97 76 75 257 10 73 325 34 93 84 53 59
290 300 316 325 327 328 332 337 342 350 360 158 282 345 6 292 327 316 347 115 122 69 200 193 210 192 164 47 44 23 356 15 9 18 22 68 100 47 50 301 203 63 15 334 339 43 354
274 284 295 316 322 324 326 328 333 339 346 286 253 209 278 125 251 331 335 326 90 29 1 -0 334 213 87 87 73 103 59 234 334 342 360 12 80 109 64 317 197 248 288 317 190 46 336
269 276 289 299 315 317 318 322 323 331 340 309 274 272 200 225 273 15 277 229 110 83 107 341 331 336 79 83 72 119 210 211 208 198 350 346 354 112 132 140 266 254 298 295 96 210 5
263 270 285 296 307 310 310 314 317 322 332 5 268 263 178 284 282 285 342 347 31 69 118 267 37 349 31 64 96 138 136 231 185 220 153 180 129 238 48 119 261 210 299 114 192 1 94
256 268 280 293 298 303 305 306 301 312 323 353 285 305 311 201 247 252 256 247 167 185 148 8 174 216 191 90 69 128 123 122 182 244 122 228 179 178 183 216 230 273 212 160 180 142 156